"Pseudo-MPEC" for C0MVGG2

Created 2019 May 21 9:07:10 UT using Find_Orb

Click here for an explanation of pseudo-MPECs

 
 Astrometry: 
     C0MVGG2  C2019 05 15.33623 16 15 58.88 -12 22 22.0    ~5FBM 20.6 GVNEOCPG96
     C0MVGG2  C2019 05 15.34183 16 16 00.95 -12 22 23.9    ~5FBM 21.0 GVNEOCPG96
     C0MVGG2  C2019 05 15.34744 16 16 03.12 -12 22 26.2    ~5FBM 21.0 GVNEOCPG96
     C0MVGG2  C2019 05 15.35305 16 16 05.22 -12 22 29.0    ~5FBM 20.8 GVNEOCPG96
     C0MVGG2  C2019 05 15.45879 16 16 46.27 -12 23 15.1    ~5FBb 19.9 GVNEOCPI52
     C0MVGG2  C2019 05 15.46005 16 16 46.82 -12 23 16.5    ~5FBb 19.5 GVNEOCPI52
     C0MVGG2  C2019 05 15.46130 16 16 47.33 -12 23 16.3    ~5FBb 20.4 GVNEOCPI52
     C0MVGG2  C2019 05 15.46256 16 16 47.80 -12 23 16.4    ~5FBb 20.3 GVNEOCPI52
     C0MVGG2  C2019 05 15.46576 16 16 49.08 -12 23 18.9    ~5FBb 20.9 GVNEOCPG96
     C0MVGG2  C2019 05 15.46651 16 16 49.39 -12 23 18.2    ~5FBb 20.6 GVNEOCPG96
     C0MVGG2  C2019 05 15.46727 16 16 49.66 -12 23 18.5    ~5FBb 20.6 GVNEOCPG96
     C0MVGG2  C2019 05 15.46802 16 16 49.99 -12 23 18.4    ~5FBb 20.1 GVNEOCPG96
     C0MVGG2  C2019 05 17.30561 16 31 51.04 -12 39 22.0    ~5HBM       VNEOCPG96
     C0MVGG2  C2019 05 17.30770 16 31 52.20 -12 39 23.3    ~5HBM       VNEOCPG96
     C0MVGG2  C2019 05 17.30875 16 31 52.75 -12 39 23.6    ~5HBM       VNEOCPG96
     C0MVGG2  C2019 05 17.32003 16 31 58.70 -12 39 30.3    ~5HAq 20.1 GVNEOCPG96
     C0MVGG2  C2019 05 17.32124 16 31 59.46 -12 39 30.7    ~5HAq 20.1 GVNEOCPG96

Station data:
(G96) Mt. Lemmon Survey  (N32.442754 W110.788720)  US/Arizona.  Observers T.
   A. Pruyne, B. M. Africano, E. J. Christensen, G. A. Farneth, D. C. Fuls,
   A. R. Gibbs, A. D. Grauer, H. Groeller, J. A. Johnson, R. A. Kowalski, S.
   M. Larson, G. J. Leonard, R. L. Seaman, F. C. Shelly. 1.5-m reflector +
   10K CCD.
(I52) Steward Observatory, Mt. Lemmon Station  (N32.442547 W110.788920)
   US/Arizona.  Observers T. A. Pruyne, B. M. Africano, E. J. Christensen, G.
   A. Farneth, D. C. Fuls, A. R. Gibbs, A. D. Grauer, H. Groeller, J. A.
   Johnson, R. A. Kowalski, S. M. Larson, G. J. Leonard, R. L. Seaman, F. C.
   Shelly. 1.0-m reflector + CCD.

Orbital elements:  C0MVGG2
   Perihelion 2019 Jul 1.200187 +/- 0.28 TT =  4:48:16 (JD 2458665.700187)
Epoch 2019 May 17.0 TT = JDT 2458620.5   Earth MOID: 0.0032   Ju: 0.6990
M 350.05023984 +/- 1.5              Ma: 0.0318                AutoNEOCP
n   0.22012652 +/- 0.0342           Peri.  223.00415 +/- 0.8
a   2.71657142 +/- 0.281            Node    72.90558 +/- 0.24
e   0.6743168 +/- 0.0365            Incl.    2.75702 +/- 0.13
P   4.48                   H 24.7   G  0.15   U 10.5  
q 0.88474150 +/- 0.00832    Q 4.54840135 +/- 0.617
From 17 observations 2019 May 15-17 (47.6 hr); mean residual 0".41
Residuals in arcseconds: 
190515 G96  .66+  .49-    190515 I52  .37+  .07-    190517 G96  .33-  .17-    
190515 G96  .30-  .23+    190515 I52  .08-  .34+    190517 G96  .32+  .23-    
190515 G96  .13+  .54+    190515 G96  .05+  .85-    190517 G96  .17+  .09+    
190515 G96  .50-  .33+    190515 G96  .22+  .15+    190517 G96  .91-  .01+    
190515 I52  .58-  .10+    190515 G96  .25-  .16+    190517 G96  .75+  .32+    
190515 I52  .16+  .78-    190515 G96  .21+  .57+    

Ephemerides (geocentric):
Date (UTC) HH   RA              Dec         delta   r     elong  mag " sig PA
---- -- -- --  -------------   -----------  ------ ------ -----  --- ---- ---
2019 05 21 09  17 30 18.205   -13 15 12.70  .06071 1.0674 155.1 19.8  635  91
2019 05 21 10  17 31 11.914   -13 15 25.56  .06042 1.0671 155.0 19.8  651  91
2019 05 21 11  17 32 06.127   -13 15 37.86  .06014 1.0668 154.8 19.8  669  91
2019 05 21 12  17 33 00.851   -13 15 49.59  .05985 1.0664 154.6 19.8  686  91
2019 05 21 13  17 33 56.090   -13 16 00.72  .05957 1.0661 154.5 19.8  704  91
2019 05 21 14  17 34 51.850   -13 16 11.24  .05929 1.0658 154.3 19.8  723  91
2019 05 21 15  17 35 48.138   -13 16 21.12  .05900 1.0655 154.1 19.8  741  90
2019 05 21 16  17 36 44.958   -13 16 30.35  .05872 1.0651 153.9 19.8  761  90
2019 05 21 17  17 37 42.315   -13 16 38.91  .05844 1.0648 153.7 19.8  780  90
2019 05 21 18  17 38 40.217   -13 16 46.76  .05817 1.0645 153.6 19.8  800  90
2019 05 21 19  17 39 38.668   -13 16 53.90  .05789 1.0642 153.4 19.8  821  90
2019 05 21 20  17 40 37.674   -13 17 00.30  .05761 1.0638 153.2 19.8  841  90
2019 05 21 21  17 41 37.241   -13 17 05.93  .05734 1.0635 153.0 19.8  863  90
2019 05 21 22  17 42 37.375   -13 17 10.77  .05706 1.0632 152.8 19.8  884  90
2019 05 21 23  17 43 38.081   -13 17 14.79  .05679 1.0629 152.6 19.8  906  90
2019 05 22 00  17 44 39.366   -13 17 17.98  .05652 1.0626 152.4 19.7  929  90
2019 05 22 01  17 45 41.236   -13 17 20.31  .05625 1.0622 152.2 19.7  952  90
2019 05 22 02  17 46 43.695   -13 17 21.74  .05598 1.0619 152.0 19.7  975  90
2019 05 22 03  17 47 46.750   -13 17 22.26  .05571 1.0616 151.8 19.7  999  90
2019 05 22 04  17 48 50.408   -13 17 21.83  .05544 1.0613 151.6 19.7 1024  90
2019 05 22 05  17 49 54.673   -13 17 20.43  .05517 1.0609 151.4 19.7 1049  90
2019 05 22 06  17 50 59.552   -13 17 18.03  .05491 1.0606 151.2 19.7 1074  90
2019 05 22 07  17 52 05.052   -13 17 14.59  .05465 1.0603 150.9 19.7 1100  90
2019 05 22 08  17 53 11.176   -13 17 10.10  .05438 1.0600 150.7 19.7 1126  89
2019 05 22 09  17 54 17.933   -13 17 04.52  .05412 1.0597 150.5 19.7 1153  89
2019 05 22 10  17 55 25.327   -13 16 57.82  .05386 1.0593 150.3 19.7 1181  89
2019 05 22 11  17 56 33.365   -13 16 49.96  .05360 1.0590 150.1 19.7 1209  89
2019 05 22 12  17 57 42.052   -13 16 40.92  .05334 1.0587 149.8 19.7 1237  89
2019 05 22 13  17 58 51.395   -13 16 30.66  .05309 1.0584 149.6 19.7 1266  89
2019 05 22 14  18 00 01.399   -13 16 19.15  .05283 1.0581 149.4 19.7 1296  89
2019 05 22 15  18 01 12.070   -13 16 06.35  .05258 1.0577 149.1 19.7 1326  89
2019 05 22 16  18 02 23.414   -13 15 52.22  .05233 1.0574 148.9 19.7 1357  89
2019 05 22 17  18 03 35.437   -13 15 36.74  .05208 1.0571 148.6 19.7 1388  89
2019 05 22 18  18 04 48.144   -13 15 19.87  .05183 1.0568 148.4 19.7 1420  89
2019 05 22 19  18 06 01.542   -13 15 01.56  .05158 1.0565 148.1 19.7 1452  89
2019 05 22 20  18 07 15.636   -13 14 41.78  .05133 1.0561 147.9 19.7 1485  89
2019 05 22 21  18 08 30.432   -13 14 20.49  .05109 1.0558 147.6 19.7 1519  89
2019 05 22 22  18 09 45.934   -13 13 57.66  .05084 1.0555 147.4 19.6 1553  89
2019 05 22 23  18 11 02.150   -13 13 33.23  .05060 1.0552 147.1 19.6 1588  88
2019 05 23 00  18 12 19.083   -13 13 07.18  .05036 1.0549 146.9 19.6 1624  88
2019 05 23 01  18 13 36.741   -13 12 39.46  .05012 1.0546 146.6 19.6 1660  88
2019 05 23 02  18 14 55.126   -13 12 10.02  .04988 1.0542 146.3 19.6 1697  88
2019 05 23 03  18 16 14.246   -13 11 38.83  .04965 1.0539 146.1 19.6 1734  88
2019 05 23 04  18 17 34.106   -13 11 05.84  .04941 1.0536 145.8 19.6 1773  88
2019 05 23 05  18 18 54.709   -13 10 31.01  .04918 1.0533 145.5 19.6 1811  88
2019 05 23 06  18 20 16.061   -13 09 54.29  .04895 1.0530 145.2 19.6 1851  88
2019 05 23 07  18 21 38.167   -13 09 15.63  .04872 1.0527 144.9 19.6 1891  88
2019 05 23 08  18 23 01.031   -13 08 35.00  .04849 1.0523 144.7 19.6 1932  88